Location: Asheville, NC
(35.6000°N, 82.5500°W)
Time: 04:57:23

STARS - Pass Details

Date: 08 January 2018
Orbit: 625 x 641 km, 98.3° (Epoch: 22 March)

Event Time Altitude Azimuth Distance (km) Brightness Sun altitude
Rises 05:20:49 0° 151° (SSE) 2,894 ? -27.7°
Reaches altitude 10° 05:23:04 10° 145° (SE) 1,990 ? -27.3°
Maximum altitude 05:27:10 44° 73° (ENE) 862 ? -26.5°
Enters shadow 05:29:00 28° 19° (NNE) 1,176 ? -26.1°
